X  Close Humid and partly cloudy throughout the day.
Conditions Temperature Feels Precipitation Wind Wind Direction UV index Pressure
2:00 partly-cloudy-night Mostly Cloudy 25° - 18-39 km/h NE NE - 1015,5
3:00 cloudy Overcast 25° - 16-37 km/h NE NE - 1015,1
4:00 cloudy Overcast 24° - 15-35 km/h NE NE - 1014,8
5:00 cloudy Overcast 24° - 14-34 km/h NE NE - 1014,8
6:00 cloudy Overcast 25° - 15-33 km/h NE NE - 1015,2
7:00 partly-cloudy-day Mostly Cloudy 25° - 16-32 km/h NE NE - 1015,9
8:00 partly-cloudy-day Mostly Cloudy 26° - 18-32 km/h NE NE uv-1 1016,6
9:00 partly-cloudy-day Mostly Cloudy 27° - 19-32 km/h NE NE uv-3 1016,3
10:00 partly-cloudy-day Mostly Cloudy 29° - 21-32 km/h NE NE uv-4 1016,2
11:00 cloudy Overcast 30° - 22-31 km/h ENE ENE uv-5 1015,8
12:00 partly-cloudy-day Mostly Cloudy 30° - 22-30 km/h ENE ENE uv-6 1015,1
1:00 partly-cloudy-day Mostly Cloudy 31° - 22-29 km/h ENE ENE uv-6 1014,1
2:00 partly-cloudy-day Mostly Cloudy 31° - 22-28 km/h ENE ENE uv-5 1013,4
3:00 partly-cloudy-day Partly Cloudy 30° - 21-28 km/h ENE ENE uv-3 1013,3
4:00 partly-cloudy-day Partly Cloudy 29° - 20-29 km/h ENE ENE uv-1 1013,7
5:00 clear-day Clear 28° - 18-30 km/h ENE ENE - 1014,1
6:00 clear-night Clear 27° - 16-29 km/h ENE ENE - 1014,4
7:00 clear-night Clear 26° - 14-28 km/h ENE ENE - 1015,2
8:00 clear-night Clear 25° - 12-26 km/h ENE ENE - 1015,6
9:00 clear-night Clear 25° - 12-25 km/h ENE ENE - 1015,6
10:00 clear-night Clear 25° - 12-23 km/h ENE ENE - 1015,4
11:00 clear-night Clear 25° - 12-22 km/h NE NE - 1015,1
12:00 clear-night Clear 25° - 12-22 km/h NE NE - 1014,6
1:00 clear-night Clear 24° - 12-21 km/h NE NE - 1013,8
2:00 clear-night Clear 24° - 12-21 km/h NE NE - 1013,3
3:00 partly-cloudy-night Partly Cloudy 24° - 12-21 km/h NE NE - 1013,6
4:00 partly-cloudy-night Partly Cloudy 24° - 13-20 km/h NE NE - 1013,3
5:00 partly-cloudy-night Partly Cloudy 24° 0.01 mm 2% 13-20 km/h NE NE - 1013,5
6:00 partly-cloudy-night Partly Cloudy 25° - 14-21 km/h NE NE - 1013,8
7:00 partly-cloudy-day Partly Cloudy 25° - 14-22 km/h NE NE - 1014,4
8:00 partly-cloudy-day Partly Cloudy 26° - 15-24 km/h NE NE uv-1 1014,7
9:00 partly-cloudy-day Partly Cloudy 27° - 17-27 km/h NE NE uv-3 1014,8
10:00 partly-cloudy-day Partly Cloudy 29° - 19-30 km/h NE NE uv-5 1014,8
11:00 partly-cloudy-day Humid and Partly Cloudy 30° 33° 0.01 mm 2% 21-32 km/h NE NE uv-6 1014,4
12:00 partly-cloudy-day Partly Cloudy 30° 34° 0.01 mm 2% 22-32 km/h ENE ENE uv-7 1013,7
1:00 partly-cloudy-day Partly Cloudy 31° 34° 0.01 mm 3% 22-31 km/h ENE ENE uv-6 1012,8
2:00 partly-cloudy-day Partly Cloudy 31° 34° 0.01 mm 3% 22-29 km/h ENE ENE uv-5 1012,2
3:00 partly-cloudy-day Partly Cloudy 30° 33° 0.01 mm 3% 22-30 km/h ENE ENE uv-3 1011,8
4:00 partly-cloudy-day Partly Cloudy 29° - 21-30 km/h ENE ENE uv-1 1011,7
5:00 clear-day Clear 28° - 21-31 km/h ENE ENE - 1011,8
6:00 clear-night Clear 28° - 20-32 km/h ENE ENE - 1012,2
7:00 clear-night Clear 27° - 18-33 km/h ENE ENE - 1012,9
8:00 clear-night Humid 26° - 16-32 km/h ENE ENE - 1013,5
9:00 clear-night Clear 26° - 15-29 km/h NE NE - 1014,0
10:00 clear-night Clear 25° 0.01 mm 2% 14-25 km/h NE NE - 1013,7
11:00 clear-night Clear 25° 0.02 mm 2% 14-22 km/h NE NE - 1013,7
12:00 clear-night Clear 25° 0.01 mm 2% 14-21 km/h NE NE - 1013,5
1:00 clear-night Clear 24° 0.01 mm 2% 14-21 km/h NE NE - 1013,1
2:00 clear-night Clear 24° - 15-22 km/h NE NE - 1012,9